DW3982 Weather Reports


time (UTC)temp
F
wind
direction
speed
knots
gust
knots
rain 1hr
in
rain 24hr
in
rain mn
in
humidity
%
barometer
mb
20260505011445 63 172 4.3 7.0 0.00 0.00 0.00 57 1009.8
20260505010942 64 163 3.5 4.3 0.00 0.00 0.00 57 1009.3
20260505010438 64 186 3.5 4.3 0.00 0.00 0.00 56 1009.7
20260505005934 64 182 2.6 2.6 0.00 0.00 0.00 55 1009.6
20260505005431 64 210 5.2 7.0 0.00 0.00 0.00 54 1009.5
20260505004929 65 189 5.2 7.0 0.00 0.00 0.00 53 1009.5
20260505004425 65 272 2.6 4.3 0.00 0.00 0.00 53 1009.3
20260505003922 65 174 5.2 7.0 0.00 0.00 0.00 53 1009.3
20260505003419 65 192 7.8 9.6 0.00 0.00 0.00 52 1009.5
20260505002915 66 199 3.5 5.2 0.00 0.00 0.00 53 1009.2
20260505002412 66 198 5.2 7.0 0.00 0.00 0.00 53 1009.3
20260505001910 66 152 3.5 5.2 0.00 0.00 0.00 54 1009.3
20260505001408 66 186 5.2 7.0 0.00 0.00 0.00 55 1009.2
20260505000904 66 163 6.1 7.8 0.00 0.00 0.00 54 1009.1
20260505000403 67 199 4.3 5.2 0.00 0.00 0.00 53 1009.0
20260504235859 67 157 3.5 5.2 0.00 0.00 0.00 53 1009.0
20260504235356 68 292 6.1 7.0 0.00 0.00 0.00 51 1009.1
20260504234852 69 203 7.0 7.8 0.00 0.00 0.00 50 1009.0
20260504234350 70 206 4.3 4.3 0.00 0.00 0.00 47 1008.9
20260504233846 70 171 3.5 5.2 0.00 0.00 0.00 46 1008.8
20260504233342 70 185 6.1 7.8 0.00 0.00 0.00 45 1008.8
20260504232839 71 215 3.5 4.3 0.00 0.00 0.00 45 1008.9
20260504232336 71 174 1.7 4.3 0.00 0.00 0.00 44 1009.0
20260504231833 71 236 2.6 5.2 0.00 0.00 0.00 44 1008.7
20260504231329 71 186 3.5 5.2 0.00 0.00 0.00 44 1009.0
20260504230825 72 176 3.5 4.3 0.00 0.00 0.00 44 1008.6
20260504230323 72 254 1.7 2.6 0.00 0.00 0.00 43 1009.1
20260504225822 72 200 4.3 4.3 0.00 0.00 0.00 43 1009.1
20260504225318 72 221 4.3 7.0 0.00 0.00 0.00 42 1008.7
20260504224815 73 233 3.5 5.2 0.00 0.00 0.00 42 1009.0
20260504224312 73 241 3.5 7.0 0.00 0.00 0.00 41 1009.0
20260504223809 73 236 10.4 13.0 0.00 0.00 0.00 41 1009.1
20260504223304 72 274 7.8 9.6 0.00 0.00 0.00 41 1009.0
20260504222801 73 191 4.3 5.2 0.00 0.00 0.00 42 1009.2
20260504222258 73 267 5.2 7.8 0.00 0.00 0.00 41 1009.1
20260504221756 73 243 7.0 9.6 0.00 0.00 0.00 40 1009.2
20260504221253 73 260 8.7 12.2 0.00 0.00 0.00 40 1009.3
20260504220749 73 238 7.0 9.6 0.00 0.00 0.00 40 1008.8
20260504220246 73 278 9.6 14.8 0.00 0.00 0.00 40 1009.1
20260504215744 73 178 4.3 5.2 0.00 0.00 0.00 42 1009.2
20260504215240 73 160 7.0 7.8 0.00 0.00 0.00 41 1009.3
20260504214736 73 189 4.3 5.2 0.00 0.00 0.00 41 1009.2
20260504214233 73 185 10.4 12.2 0.00 0.00 0.00 39 1009.0
20260504213730 74 10 1.7 2.6 0.00 0.00 0.00 41 1009.0
20260504213226 74 236 4.3 5.2 0.00 0.00 0.00 40 1009.1
20260504212723 73 286 5.2 5.2 0.00 0.00 0.00 40 1009.1
20260504212220 74 148 4.3 7.0 0.00 0.00 0.00 40 1009.0
20260504211717 73 287 5.2 7.8 0.00 0.00 0.00 40 1008.9
20260504211213 73 245 2.6 4.3 0.00 0.00 0.00 41 1009.2
20260504210711 73 246 7.0 9.6 0.00 0.00 0.00 39 1009.3
20260504210207 73 230 4.3 5.2 0.00 0.00 0.00 40 1009.2
20260504205704 73 228 4.3 7.0 0.00 0.00 0.00 40 1009.0
20260504205202 74 209 4.3 7.0 0.00 0.00 0.00 40 1009.2
20260504204700 74 294 1.7 4.3 0.00 0.00 0.00 40 1009.1
20260504204159 74 209 4.3 7.0 0.00 0.00 0.00 40 1009.1
20260504203657 73 274 6.1 7.8 0.00 0.00 0.00 40 1009.1
20260504203155 73 318 2.6 4.3 0.00 0.00 0.00 39 1009.5
20260504202654 73 237 2.6 4.3 0.00 0.00 0.00 42 1009.2
20260504202152 73 214 3.5 5.2 0.00 0.00 0.00 40 1009.3
20260504201649 72 295 8.7 10.4 0.00 0.00 0.00 39 1009.7
20260504201146 72 207 8.7 12.2 0.00 0.00 0.00 40 1009.6
20260504200643 73 297 4.3 7.8 0.00 0.00 0.00 40 1009.6
20260504200140 72 245 5.2 7.0 0.00 0.00 0.00 41 1009.6
20260504195636 73 353 2.6 5.2 0.00 0.00 0.00 41 1009.8
20260504195132 73 280 1.7 2.6 0.00 0.00 0.00 41 1009.7
20260504194629 73 272 8.7 12.2 0.00 0.00 0.00 41 1010.0
20260504194125 73 300 1.7 2.6 0.00 0.00 0.00 41 1010.1
20260504193621 72 300 5.2 10.4 0.00 0.00 0.00 42 1010.2
20260504193120 72 257 11.3 14.8 0.00 0.00 0.00 40 1010.3
20260504192617 72 254 2.6 5.2 0.00 0.00 0.00 42 1010.4
20260504192115 72 182 8.7 12.2 0.00 0.00 0.00 41 1010.4
20260504191614 72 312 4.3 5.2 0.00 0.00 0.00 40 1010.5
20260504191109 72 320 1.7 2.6 0.00 0.00 0.00 41 1010.6
20260504190606 72 354 7.8 12.2 0.00 0.00 0.00 41 1010.7
20260504185559 71 258 2.6 4.3 0.00 0.00 0.00 41 1010.8
20260504185055 71 166 7.0 10.4 0.00 0.00 0.00 40 1010.9
20260504184551 71 257 7.0 7.8 0.00 0.00 0.00 41 1010.8
20260504184046 71 316 7.8 10.4 0.00 0.00 0.00 41 1010.9
20260504183544 70 286 12.2 13.0 0.00 0.00 0.00 40 1010.9
20260504183042 70 271 11.3 14.8 0.00 0.00 0.00 42 1011.2
20260504182539 70 273 4.3 5.2 0.00 0.00 0.00 42 1011.0
20260504182036 70 266 6.1 7.0 0.00 0.00 0.00 41 1011.3
20260504181533 70 277 7.8 9.6 0.00 0.00 0.00 41 1011.6
20260504181031 69 234 6.1 7.8 0.00 0.00 0.00 41 1011.3
20260504180530 70 261 7.8 12.2 0.00 0.00 0.00 42 1011.2
20260504180028 69 213 8.7 12.2 0.00 0.00 0.00 41 1011.5
20260504175525 70 242 5.2 5.2 0.00 0.00 0.00 41 1011.3
20260504175022 69 295 6.1 7.8 0.00 0.00 0.00 42 1011.7
20260504174520 70 299 2.6 2.6 0.00 0.00 0.00 42 1011.5
20260504174017 69 215 6.1 7.8 0.00 0.00 0.00 45 1011.5
20260504173513 69 177 8.7 10.4 0.00 0.00 0.00 43 1011.8
20260504173011 69 194 2.6 5.2 0.00 0.00 0.00 43 1011.7
20260504172507 70 239 4.3 5.2 0.00 0.00 0.00 41 1011.7
20260504172003 68 321 7.0 9.6 0.00 0.00 0.00 44 1012.0
20260504171500 68 242 7.8 9.6 0.00 0.00 0.00 41 1012.0
20260504170957 69 322 14.8 21.7 0.00 0.00 0.00 41 1012.1
20260504170453 68 250 4.3 7.8 0.00 0.00 0.00 44 1012.0
20260504160413 66 207 4.3 5.2 0.00 0.00 0.00 43 1012.8
20260504150837 64 283 1.7 2.6 0.00 0.00 0.00 44 1013.3
20260504150334 64 312 2.6 4.3 0.00 0.00 0.00 46 1013.4
20260504141304 62 206 0.9 1.7 0.00 0.00 0.00 49 1013.9
20260504140800 61 243 0.9 1.7 0.00 0.00 0.00 53 1013.9
20260504140256 61 263 3.5 5.2 0.00 0.00 0.00 50 1013.9
20260504130725 57 204 1.7 2.6 0.00 0.00 0.00 54 1014.1
20260504130220 57 196 0.9 1.7 0.00 0.00 0.00 55 1014.2
20260504120145 51 237 1.7 2.6 0.00 0.00 0.00 59 1014.3
20260504110612 46 345 2.6 2.6 0.00 0.00 0.00 64 1014.2
20260504110108 46 321 0.9 1.7 0.00 0.00 0.00 63 1014.1
20260504100534 46 289 4.3 5.2 0.00 0.00 0.00 64 1014.3
20260504081927 47 330 1.7 2.6 0.00 0.00 0.00 61 1014.7
20260504081424 47 282 3.5 5.2 0.00 0.00 0.00 60 1014.8
20260504080920 47 285 1.7 4.3 0.00 0.00 0.00 60 1014.8
20260504080417 47 340 0.9 2.6 0.00 0.00 0.00 61 1014.6
20260504070344 48 286 5.2 5.2 0.00 0.00 0.00 58 1015.0
20260504050732 50 294 5.2 7.0 0.00 0.00 0.00 54 1014.9
20260504050229 50 269 1.7 1.7 0.00 0.00 0.00 54 1015.0
20260504045726 50 271 2.6 4.3 0.00 0.00 0.00 55 1015.0
20260504045221 50 266 5.2 7.8 0.00 0.00 0.00 55 1014.8
20260504044719 50 245 3.5 5.2 0.00 0.00 0.00 55 1015.0
20260504044217 50 292 4.3 4.3 0.00 0.00 0.00 55 1015.1
20260504043714 50 29 6.1 9.6 0.00 0.00 0.00 55 1014.8
20260504043210 50 284 2.6 2.6 0.00 0.00 0.00 56 1014.8
20260504042708 50 274 4.3 7.0 0.00 0.00 0.00 55 1014.7
20260504042204 50 214 2.6 4.3 0.00 0.00 0.00 54 1014.9
20260504041700 50 229 1.7 4.3 0.00 0.00 0.00 54 1015.0
20260504041156 50 288 2.6 5.2 0.00 0.00 0.00 53 1014.8
20260504040653 50 264 7.8 10.4 0.00 0.00 0.00 53 1014.9
20260504040150 51 316 5.2 7.0 0.00 0.00 0.00 53 1014.7
20260504035647 51 308 5.2 7.8 0.00 0.00 0.00 53 1014.7
20260504035144 51 326 3.5 4.3 0.00 0.00 0.00 53 1014.7
20260504034641 50 317 1.7 4.3 0.00 0.00 0.00 55 1014.8
20260504034138 51 295 1.7 2.6 0.00 0.00 0.00 54 1014.6
20260504033636 51 296 2.6 4.3 0.00 0.00 0.00 53 1014.6
20260504033133 51 232 1.7 2.6 0.00 0.00 0.00 53 1014.7
20260504032629 51 199 1.7 2.6 0.00 0.00 0.00 53 1014.8
20260504032127 51 254 4.3 5.2 0.00 0.00 0.00 53 1014.5
20260504031624 51 321 1.7 2.6 0.00 0.00 0.00 53 1014.5
20260504031120 51 223 0.0 1.7 0.00 0.00 0.00 54 1014.5
20260504030617 52 289 1.7 2.6 0.00 0.00 0.00 50 1014.7
20260504030114 52 302 3.5 4.3 0.00 0.00 0.00 50 1014.3
20260504025610 51 250 0.9 1.7 0.00 0.00 0.00 51 1014.8
20260504025108 51 351 1.7 1.7 0.00 0.00 0.00 51 1014.2
20260504024605 52 317 0.9 2.6 0.00 0.00 0.00 51 1014.3
20260504024101 52 285 2.6 4.3 0.00 0.00 0.00 50 1014.3
20260504023557 52 350 2.6 2.6 0.00 0.00 0.00 49 1014.5
20260504023053 52 259 2.6 4.3 0.00 0.00 0.00 51 1014.3
20260504022550 53 301 1.7 2.6 0.00 0.00 0.00 48 1014.7
20260504022046 53 282 1.7 1.7 0.00 0.00 0.00 47 1014.3
20260504021544 53 300 0.9 1.7 0.00 0.00 0.00 48 1014.5
20260504021040 53 274 1.7 2.6 0.00 0.00 0.00 47 1014.6
20260504020537 53 276 2.6 4.3 0.00 0.00 0.00 47 1014.2
20260504020034 53 300 3.5 4.3 0.00 0.00 0.00 47 1014.5
20260504015530 53 309 0.9 1.7 0.00 0.00 0.00 47 1014.2
20260504015026 53 250 0.9 1.7 0.00 0.00 0.00 47 1014.3
20260504014523 53 297 1.7 2.6 0.00 0.00 0.00 46 1014.5
20260504014020 54 309 0.9 1.7 0.00 0.00 0.00 46 1014.3
20260504013518 54 305 4.3 4.3 0.00 0.00 0.00 45 1014.5
20260504013014 54 312 1.7 2.6 0.00 0.00 0.00 45 1014.2
20260504012512 54 341 2.6 2.6 0.00 0.00 0.00 44 1014.1
20260504012010 54 274 2.6 2.6 0.00 0.00 0.00 44 1014.1